Location: Arrodets-la-Barthe
(43.0306°N, 0.2829°E)
Time: 01:18:34
(UTC+00:00)

DUCHIFAT 1 - Pass Details

Date: 09 April 2023
Orbit: 567 x 581 km, 98.1° (Epoch: 29 May)

Event Time Altitude Azimuth Distance (km) Brightness Sun altitude
Rises 03:36:09 0° 8° (N) 2,783 ? -19.8°
Reaches altitude 10° 03:38:20 10° 4° (N) 1,878 ? -19.5°
Maximum altitude 03:42:19 55° 287° (WNW) 684 ? -18.8°
Enters shadow 03:43:08 46° 243° (WSW) 773 ? -18.7°
